Regional Weather Roundup
Issued by NWS

Home | Current Version | Previous Version | Text Only | Print | Product List | Glossary On
Versions: 1 2 3 4 5 6 7 8 9 10 11 12 13 14 15 16 17 18 19 20 21 22 23 24 25 26 27 28 29 30 31 32 33 34 35 36 37 38 39 40 41 42 43 44 45 46 47 48 49 50
000
ASUS44 KOUN 210810
RWROK

WEATHER ROUNDUP FOR OKLAHOMA
NATIONAL WEATHER SERVICE NORMAN OK
300 AM CDT TUE OCT 21 2014

NOTE: "FAIR" INDICATES FEW OR NO CLOUDS BELOW 12,000 FEET WITH NO
      SIGNIFICANT WEATHER AND/OR OBSTRUCTIONS TO VISIBILITY.

OKZ001>007-009>012-014-015-017-210900-
NORTHWEST OKLAHOMA AND THE PANHANDLE

CITY           SKY/WX    TMP DP  RH WIND       PRES   REMARKS
GAGE           CLEAR     57  57 100 CALM      30.05F FOG
ENID/WOODRING  PTCLDY    59  59 100 CALM      30.05S
$$

OKZ016-021>023-033>039-044-045-210900-
SOUTHWEST OKLAHOMA

CITY           SKY/WX    TMP DP  RH WIND       PRES   REMARKS
LAWTON/REGL    CLEAR     60  56  86 NE3       30.05S
LAWTON/FT SILL CLEAR     60  57  91 CALM      30.04S
FREDERICK      CLEAR     64  57  78 S6        30.02S
CLINTON        MOCLDY    64  57  78 S9        30.08S
HOBART         CLEAR     62  57  83 S10       30.06S
ALTUS AFB      CLEAR     59  58  97 E3        30.05S
$$

OKZ018>020-024>031-210900-
CENTRAL OKLAHOMA

CITY           SKY/WX    TMP DP  RH WIND       PRES   REMARKS
OKLAHOMA CITY  CLEAR     61  58  90 S5        30.05S
OKC/WILEY POST CLEAR     62  59  90 S3        30.06R
OKC/TINKER AFB CLEAR     63  60  90 S6        30.05S
STILLWATER     PTCLDY    61  58  90 CALM      30.06S
GUTHRIE        CLEAR     63  60  90 SE7       30.05S
$$

OKZ008-013-054>072-210900-
NORTHEAST OKLAHOMA

CITY           SKY/WX    TMP DP  RH WIND       PRES   REMARKS
TULSA          MOCLDY    60  58  92 CALM      30.06S
TULSA/JONES    MOCLDY    61  60  97 CALM      30.07S
PONCA CITY     PTCLDY    60  58  92 SE5       30.06S
BARTLESVILLE   FOG       49  49 100 CALM      30.08S VSB 1
MUSKOGEE       MOCLDY    58  57  97 CALM      30.08S FOG
$$

OKZ032-040>043-046>053-073>077-210900-
SOUTH CENTRAL/SOUTHEAST OKLAHOMA

CITY           SKY/WX    TMP DP  RH WIND       PRES   REMARKS
ARDMORE/DWNTWN CLEAR     59  57  94 CALM      30.05S FOG
MCALESTER      CLEAR     58  56  93 CALM      30.06S FOG
$$




USA.gov is the U.S. government's official web portal to all federal, state and local government web resources and services.